Погода в Смоленском

Россия / Новосибирская область     55°11′54″N   83°21′50″E
темп.,
°C
ветер,
м/с
пор.,
м/с
влажн.,
%
обл.,
%
осадки,
мм/ч
давл.,
гПа
погр.,
м
26 сентября, вс
вс2601:00+2с3497100 1.7 1016400
04:00+1сз4694100 0.2 1016489
07:000сз4798100 0.4 1016481
10:000ссз61198100 0.9 1015596
13:00+1ссз71195100 2.8 1017833
16:00+2сз61088100 0.4 1019984
19:00+1зсз51196100 0.4 1020694
22:00+1сз51198100 0.4 1021592
27 сентября, пн
пн2701:00+1сз5998100 0.6 1022521
04:00+1ссз4998100 0.1 1022417
07:00+2с489897 0.1 1024451
10:00+2ссв4797100 0.0 1025452
13:00+4ссв4587100 0.0 1026566
16:00+5св3481100 0.0 1026720
19:00+4св358279 0.1 1026153
22:00+3св3686100 0.0 1026167
28 сентября, вт
вт2801:00+3ссв3588100 0.1 1025148
04:00+2ссв3695100 0.0 1024242
07:000св369711 0.0 1023127
10:00+3всв2582100 0.0 1023302
13:00+5св346384 0.0 10221127
16:00+6всв2357100 0.0 10211371
19:00+5в2365100 0.0 102147
22:00+4в2367100 0.0 102066
29 сентября, ср
ср2901:00+3в3575100 0.0 1019115
04:00+1в368583 0.0 1017108
07:00−1всв4118981 0.0 1015243
10:00+3всв61072100 0.0 1013461
13:00+5всв5768100 0.1 1012794
16:00+5всв5879100 0.6 1011869
19:00+3в3796100 2.4 1012648
22:00+3св3698100 1.0 1012722
30 сентября, чт
чт3001:00+4с2498100 1.4 1011308
04:00+3с3597100 0.2 1011243
07:00+3ссз3498100 0.6 1012524
10:00+2сз3599100 1.6 1013306
13:00+2зсз3599100 2.7 1014342
16:00+3зсз3899100 0.9 1015487
19:00+4зсз2694100 1.3 1016410
22:00+3зюз3488100 0.1 1016108